Location: Street
(51.1247°N, 2.7429°W)
Time: 09:26:54
(UTC+01:00)

PCSat - Pass Details

Date: 02 April 2023
Orbit: 783 x 794 km, 67.1° (Epoch: 29 May)

Event Time Altitude Azimuth Distance (km) Brightness Sun altitude
Rises 01:48:02 0° 316° (NW) 3,303 13.2 -33.7°
Reaches altitude 10° 01:50:45 10° 305° (NW) 2,370 12.3 -33.6°
Enters shadow 01:51:36 14° 300° (WNW) 2,108 11.9 -33.6°
